Regional Weather Roundup
Issued by NWS

Home | Current Version | Previous Version | Text Only | Print | Product List | Glossary Off
Versions: 1 2 3 4 5 6 7 8 9 10 11 12 13 14 15 16 17 18 19 20 21 22 23 24 25 26 27 28 29 30 31 32 33 34 35 36 37 38 39 40 41 42 43 44 45 46 47 48 49 50

356
ASUS45 KPSR 250710
RWRAZ

ARIZONA HOURLY REGIONAL WEATHER ROUNDUP
NATIONAL WEATHER SERVICE PHOENIX AZ
1200 AM MST SAT MAR 25 2017

NOTE: FAIR INDICATES FEW OR NO CLOUDS BELOW 12,000 FEET WITH NO
SIGNIFICANT WEATHER AND/OR OBSTRUCTIONS TO VISIBILITY.

AZZ001>003-036-250800-
NORTHWEST ARIZONA

CITY           SKY/WX    TMP DP  RH WIND       PRES   REMARKS
BULLHEAD CITY  PTCLDY    64  28  25 S3        30.03F
KINGMAN        PTCLDY    49  26  41 SE10      30.13F
$$

AZZ004>008-015-016-018-250800-
NORTH CENTRAL ARIZONA

CITY           SKY/WX    TMP DP  RH WIND       PRES   REMARKS
GRAND CANYON   CLEAR     30  29  96 CALM      30.24S
WILLIAMS       CLEAR     41  30  65 S8        30.23F
PRESCOTT       CLEAR     45  31  58 S6        30.20F
FLAGSTAFF      CLEAR     30  28  92 S3        30.24F
PAYSON         CLEAR     45  34  65 CALM      30.23S
PAGE           CLEAR     51  30  44 CALM      30.11S
$$

AZZ009>014-017-250800-
NORTHEAST ARIZONA

CITY           SKY/WX    TMP DP  RH WIND       PRES   REMARKS
WINSLOW        CLEAR     46  33  60 S7        30.18S
SAINT JOHNS    CLEAR     40  21  46 SW5       30.20F
WINDOW ROCK    CLEAR     32  23  69 CALM      30.22F
SHOW LOW       CLEAR     36  25  64 S10       30.24F WCI  28
$$

AZZ023-250800-
GREATER PHOENIX AREA

CITY           SKY/WX    TMP DP  RH WIND       PRES   REMARKS
PHOENIX        CLEAR     65  38  36 E9        30.06F
BUCKEYE        CLEAR     55  36  47 N7        30.08S
LUKE AFB       CLEAR     56  42  58 NW8       30.06F
DEER VALLEY    CLEAR     60  39  45 NE7       30.07F
SCOTTSDALE     CLEAR     63  38  39 N3        30.09F
MESA-GATEWAY   CLEAR     55  43  62 SE6       30.10S
$$

AZZ027-028-250800-
SOUTHWEST MARICOPA COUNTY AND PINAL COUNTY

CITY           SKY/WX    TMP DP  RH WIND       PRES   REMARKS
CASA GRANDE    NOT AVBL
GILA BEND      FAIR      60  24  25 SE9       30.06F
$$

AZZ503-504-507>509-250800-
SOUTHEAST ARIZONA

CITY           SKY/WX    TMP DP  RH WIND       PRES   REMARKS
TUCSON         CLEAR     53  19  26 SE6       30.15F
DAVIS-MONTHAN  CLEAR     50  24  36 SE9       30.13F
NOGALES        CLEAR     45  17  32 E3        30.16F
SIERRA VISTA   CLEAR     51  17  26 SW6       30.20F
DOUGLAS        CLEAR     43  20  39 N8        30.18S
SAFFORD        CLEAR     51  32  48 NW5       30.12F
$$

AZZ020-021-025-026-031-250800-
SOUTHWEST ARIZONA

CITY           SKY/WX    TMP DP  RH WIND       PRES   REMARKS
YUMA           CLEAR     65  44  46 E3        30.05F
$$

CAZ031-033-041-043-047-048-061-250800-
SOUTHERN CALIFORNIA

CITY           SKY/WX    TMP DP  RH WIND       PRES   REMARKS
DOWNTOWN L.A.  PTCLDY    57  52  83 CALM      30.17F
L.A. AIRPORT   MOCLDY    58  52  80 W12       30.18R
SAN DIEGO      MOCLDY    60  51  72 CALM      30.21F
BURBANK        PTCLDY    55  46  71 W5        30.17S
ONTARIO        MOCLDY    53  48  83 W8        30.18R
RIVERSIDE      PTCLDY    55  49  80 W3        30.18S
PALM SPRINGS   MOCLDY    68  43  40 W5        30.07F
EL CENTRO NAS  PTCLDY    68  40  35 SW13      30.05F
IMPERIAL       PTCLDY    67  39  35 SW8       30.03F
BLYTHE         PTCLDY    68  33  27 SW7       30.05F
NEEDLES        PTCLDY    69  28  21 CALM      30.03F
$$

NVZ020-UTZ003-250800-
SOUTHERN NEVADA-UTAH

CITY           SKY/WX    TMP DP  RH WIND       PRES   REMARKS
LAS VEGAS      MOCLDY    67  20  16 S10       30.01S
SALT LAKE CITY CLOUDY    53  34  48 SE15      30.00F
$$

NMZ009-TXZ055-250800-
NEW MEXICO-WEST TEXAS

CITY           SKY/WX    TMP DP  RH WIND       PRES   REMARKS
ALBUQUERQUE    CLEAR     51  19  28 W7        30.17S
EL PASO        CLEAR     59  22  24 SE7       30.11S
$$


........................KEY........................
SKY/WX - SKY CONDITION/WEATHER
TMP    - TEMPERATURE IN FAHRENHEIT
DP     - DEW POINT IN FAHRENHEIT
RH     - RELATIVE HUMIDITY IN PERCENT
WIND   - DIRECTION AND SPEED IN MILES PER HOUR (MPH)
VRB    - VARIABLE WIND DIRECTION
PRES   - MEAN SEA LEVEL PRESSURE IN INCHES OF MERCURY
         F - FALLING PRESSURE   R - RISING PRESSURE
         S - STEADY PRESSURE
VSB    - VISIBILITY IN MILES
HX     - HEAT INDEX IN FAHRENHEIT
WCI    - WIND CHILL INDEX IN FAHRENHEIT
TC     - TEMPERATURE IN CELSIUS WHICH IS ALSO KNOWN AS
         TEMPERATURE IN CENTIGRADE
AFB    - AIR FORCE BASE
         LUKE AFB IS LUKE AIR FORCE BASE
         DAVIS-MONTHAN IS DAVIS-MONTHAN AIR FORCE BASE
NAS    - NAVAL AIR STATION
         EL CENTRO NAS IS EL CENTRO NAVAL AIR STATION
N/A    - NOT AVAILABLE





USA.gov is the U.S. government's official web portal to all federal, state and local government web resources and services.